When you browse on this site, cookies collect data to enhance your experience and personalize the content and advertising you see.
Visit our Privacy Policy to learn more. By continuing to use the site, you agree to this use of cookies and data.
  • în România
  • Lista ţărilor
  • Pe 7 zile
  • Temperatura apei
  • Meteo pe hartă
  • Widget-uri
  • user-avatar
    Intrare

    Meteo pe oră la Mostar

    Astăzi, 13 Noiembrie, Miercuri

    Timp Temperatura Precipitaţii Vânt Presiune Umiditate
    00:00 +14°C° 1 mm 7 m/s 744 mmHg 89%
    01:00 +14°C° 1 mm 7 m/s 744 mmHg 89%
    02:00 +14°C° 0.8 mm 7 m/s 743 mmHg 89%
    03:00 +13°C° 0.8 mm 6 m/s 743 mmHg 89%
    04:00 +13°C° 0.8 mm 6 m/s 742 mmHg 89%
    05:00 +12°C° 2.7 mm 7 m/s 741 mmHg 90%
    06:00 +12°C° 2.7 mm 7 m/s 740 mmHg 92%
    07:00 +12°C° 2.7 mm 7 m/s 740 mmHg 93%
    08:00 +13°C° 5.4 mm 8 m/s 740 mmHg 92%
    09:00 +14°C° 5.4 mm 10 m/s 740 mmHg 90%
    10:00 +16°C° 5.4 mm 11 m/s 741 mmHg 88%
    11:00 +16°C° 1.4 mm 10 m/s 741 mmHg 88%
    12:00 +16°C° 1.4 mm 9 m/s 741 mmHg 88%
    13:00 +16°C° 1.4 mm 8 m/s 742 mmHg 88%
    14:00 +16°C° 1.6 mm 8 m/s 742 mmHg 88%
    15:00 +16°C° 1.6 mm 8 m/s 742 mmHg 88%
    16:00 +16°C° 1.6 mm 8 m/s 743 mmHg 87%
    17:00 +15°C° 1.1 mm 7 m/s 744 mmHg 88%
    18:00 +15°C° 1.1 mm 6 m/s 744 mmHg 88%
    19:00 +15°C° 1.1 mm 6 m/s 745 mmHg 89%
    20:00 +14°C° 0.2 mm 5 m/s 746 mmHg 87%
    21:00 +14°C° 0.2 mm 5 m/s 746 mmHg 85%
    22:00 +13°C° 0.2 mm 4 m/s 747 mmHg 83%
    23:00 +13°C° 0 mm 4 m/s 747 mmHg 84%

    Mâine, 14 Noiembrie, Joi

    Timp Temperatura Precipitaţii Vânt Presiune Umiditate
    00:00 +12°C° 0 mm 3 m/s 748 mmHg 85%
    01:00 +12°C° 0 mm 3 m/s 748 mmHg 85%
    02:00 +12°C° 0.1 mm 3 m/s 748 mmHg 85%
    03:00 +12°C° 0.1 mm 3 m/s 748 mmHg 85%
    04:00 +12°C° 0.1 mm 3 m/s 748 mmHg 85%
    05:00 +12°C° 0.1 mm 3 m/s 748 mmHg 85%
    06:00 +12°C° 0.1 mm 3 m/s 749 mmHg 85%
    07:00 +12°C° 0.1 mm 3 m/s 749 mmHg 84%
    08:00 +14°C° 0 mm 2 m/s 749 mmHg 81%
    09:00 +15°C° 0 mm 2 m/s 749 mmHg 78%
    10:00 +16°C° 0 mm 2 m/s 749 mmHg 75%
    11:00 +16°C° 0 mm 2 m/s 749 mmHg 74%
    12:00 +16°C° 0 mm 2 m/s 749 mmHg 72%
    13:00 +17°C° 0 mm 2 m/s 749 mmHg 71%
    14:00 +16°C° 0 mm 2 m/s 749 mmHg 74%
    15:00 +16°C° 0 mm 2 m/s 749 mmHg 78%
    16:00 +15°C° 0 mm 2 m/s 749 mmHg 81%
    17:00 +15°C° 0 mm 2 m/s 750 mmHg 83%
    18:00 +13°C° 0 mm 3 m/s 750 mmHg 85%
    19:00 +12°C° 0 mm 3 m/s 751 mmHg 87%
    20:00 +12°C° 0 mm 3 m/s 751 mmHg 87%
    21:00 +12°C° 0 mm 3 m/s 751 mmHg 86%
    22:00 +12°C° 0 mm 3 m/s 751 mmHg 86%
    23:00 +12°C° 0 mm 3 m/s 751 mmHg 85%

    Poimâine, 15 Noiembrie, Vineri

    Timp Temperatura Precipitaţii Vânt Presiune Umiditate
    00:00 +12°C° 0 mm 3 m/s 751 mmHg 84%
    01:00 +12°C° 0 mm 3 m/s 751 mmHg 82%
    02:00 +12°C° 0.1 mm 3 m/s 751 mmHg 82%
    03:00 +12°C° 0.1 mm 4 m/s 751 mmHg 82%
    04:00 +13°C° 0.1 mm 4 m/s 751 mmHg 82%
    05:00 +13°C° 0.2 mm 4 m/s 751 mmHg 83%
    06:00 +13°C° 0.2 mm 4 m/s 751 mmHg 84%
    07:00 +13°C° 0.2 mm 4 m/s 751 mmHg 85%
    08:00 +14°C° 0.2 mm 4 m/s 751 mmHg 84%
    09:00 +14°C° 0.2 mm 4 m/s 751 mmHg 84%
    10:00 +14°C° 0.2 mm 4 m/s 751 mmHg 84%
    11:00 +15°C° 0.2 mm 5 m/s 751 mmHg 85%
    12:00 +15°C° 0.2 mm 5 m/s 751 mmHg 86%
    13:00 +15°C° 0.2 mm 5 m/s 751 mmHg 87%
    14:00 +15°C° 0.2 mm 5 m/s 751 mmHg 87%
    15:00 +15°C° 0.2 mm 5 m/s 751 mmHg 88%
    16:00 +15°C° 0.2 mm 5 m/s 751 mmHg 89%
    17:00 +15°C° 0.2 mm 5 m/s 751 mmHg 89%
    18:00 +15°C° 0.2 mm 6 m/s 752 mmHg 89%
    19:00 +15°C° 0.2 mm 6 m/s 752 mmHg 89%
    20:00 +15°C° 0.3 mm 6 m/s 752 mmHg 90%
    21:00 +15°C° 0.3 mm 6 m/s 752 mmHg 90%
    22:00 +15°C° 0.3 mm 6 m/s 753 mmHg 91%
    23:00 +15°C° 0.3 mm 6 m/s 753 mmHg 91%

    16 Noiembrie, Sâmbătă

    Timp Temperatura Precipitaţii Vânt Presiune Umiditate
    00:00 +15°C° 0.3 mm 6 m/s 753 mmHg 92%
    01:00 +15°C° 0.3 mm 6 m/s 753 mmHg 92%
    02:00 +15°C° 0.6 mm 5 m/s 753 mmHg 93%
    03:00 +15°C° 0.6 mm 5 m/s 753 mmHg 93%
    04:00 +15°C° 0.6 mm 5 m/s 753 mmHg 93%
    05:00 +15°C° 0.8 mm 5 m/s 753 mmHg 93%
    06:00 +15°C° 0.8 mm 5 m/s 754 mmHg 93%
    07:00 +14°C° 0.8 mm 5 m/s 754 mmHg 93%
    08:00 +15°C° 0.4 mm 5 m/s 754 mmHg 90%
    09:00 +16°C° 0.4 mm 5 m/s 754 mmHg 88%
    10:00 +16°C° 0.4 mm 5 m/s 754 mmHg 85%
    11:00 +17°C° 0.3 mm 5 m/s 754 mmHg 83%
    12:00 +17°C° 0.3 mm 5 m/s 753 mmHg 81%
    13:00 +17°C° 0.3 mm 5 m/s 753 mmHg 79%
    14:00 +18°C° 0.1 mm 4 m/s 753 mmHg 81%
    15:00 +17°C° 0.1 mm 4 m/s 752 mmHg 82%
    16:00 +17°C° 0.1 mm 3 m/s 752 mmHg 83%
    17:00 +17°C° 0.1 mm 3 m/s 752 mmHg 83%
    18:00 +17°C° 0.1 mm 3 m/s 752 mmHg 83%
    19:00 +16°C° 0.1 mm 3 m/s 752 mmHg 84%
    20:00 +15°C° 0.2 mm 4 m/s 752 mmHg 84%
    21:00 +15°C° 0.2 mm 4 m/s 752 mmHg 85%
    22:00 +14°C° 0.2 mm 4 m/s 752 mmHg 86%
    23:00 +14°C° 0.2 mm 4 m/s 752 mmHg 85%

    17 Noiembrie, Duminică

    Timp Temperatura Precipitaţii Vânt Presiune Umiditate
    00:00 +14°C° 0.2 mm 4 m/s 751 mmHg 85%
    01:00 +13°C° 0.2 mm 4 m/s 751 mmHg 84%
    02:00 +13°C° 0.1 mm 4 m/s 751 mmHg 83%
    03:00 +13°C° 0.1 mm 4 m/s 750 mmHg 81%
    04:00 +13°C° 0.1 mm 4 m/s 750 mmHg 80%
    05:00 +13°C° 0 mm 4 m/s 749 mmHg 78%
    06:00 +13°C° 0 mm 4 m/s 749 mmHg 76%
    07:00 +13°C° 0 mm 4 m/s 749 mmHg 74%
    08:00 +14°C° 0 mm 5 m/s 749 mmHg 71%
    09:00 +15°C° 0 mm 5 m/s 749 mmHg 69%
    10:00 +16°C° 0 mm 5 m/s 749 mmHg 66%
    11:00 +16°C° 0.1 mm 6 m/s 749 mmHg 70%
    12:00 +17°C° 0.1 mm 7 m/s 748 mmHg 73%
    13:00 +17°C° 0.1 mm 8 m/s 748 mmHg 76%
    14:00 +16°C° 2.2 mm 8 m/s 748 mmHg 79%
    15:00 +16°C° 2.2 mm 7 m/s 748 mmHg 83%
    16:00 +15°C° 2.2 mm 6 m/s 747 mmHg 86%
    17:00 +15°C° 5 mm 5 m/s 748 mmHg 89%
    18:00 +14°C° 5 mm 5 m/s 748 mmHg 91%
    19:00 +13°C° 5 mm 4 m/s 749 mmHg 94%
    20:00 +13°C° 1.7 mm 4 m/s 750 mmHg 93%
    21:00 +13°C° 1.7 mm 4 m/s 750 mmHg 93%
    22:00 +12°C° 1.7 mm 3 m/s 751 mmHg 92%
    23:00 +12°C° 0.3 mm 3 m/s 751 mmHg 91%

    18 Noiembrie, Luni

    Timp Temperatura Precipitaţii Vânt Presiune Umiditate
    00:00 +12°C° 0.3 mm 4 m/s 751 mmHg 90%
    01:00 +12°C° 0.3 mm 4 m/s 752 mmHg 89%
    02:00 +11°C° 0.1 mm 4 m/s 752 mmHg 89%
    03:00 +11°C° 0.1 mm 4 m/s 752 mmHg 89%
    04:00 +11°C° 0.1 mm 4 m/s 752 mmHg 88%
    05:00 +11°C° 0.3 mm 3 m/s 752 mmHg 88%
    06:00 +11°C° 0.3 mm 3 m/s 753 mmHg 88%
    07:00 +11°C° 0.3 mm 3 m/s 753 mmHg 88%
    08:00 +12°C° 0.2 mm 3 m/s 753 mmHg 86%
    09:00 +13°C° 0.2 mm 3 m/s 753 mmHg 83%
    10:00 +14°C° 0.2 mm 3 m/s 754 mmHg 80%
    11:00 +14°C° 0.2 mm 3 m/s 754 mmHg 77%
    12:00 +16°C° 0.2 mm 3 m/s 754 mmHg 74%
    13:00 +16°C° 0.2 mm 3 m/s 753 mmHg 71%
    14:00 +14°C° 0.1 mm 3 m/s 753 mmHg 74%
    15:00 +15°C° 0.1 mm 2 m/s 753 mmHg 77%
    16:00 +14°C° 0.1 mm 2 m/s 753 mmHg 79%
    17:00 +14°C° 0 mm 2 m/s 754 mmHg 80%
    18:00 +13°C° 0 mm 2 m/s 754 mmHg 80%
    19:00 +13°C° 0 mm 2 m/s 754 mmHg 81%
    20:00 +12°C° 0 mm 2 m/s 754 mmHg 80%
    21:00 +12°C° 0 mm 2 m/s 754 mmHg 79%
    22:00 +12°C° 0 mm 2 m/s 754 mmHg 79%
    23:00 +12°C° 0 mm 2 m/s 754 mmHg 78%
    Arată mai mult